SFP1923 KSYR-CYYZ

Flight info

Callsign SFP1923
Flight time N/A
Altitude 22000
Route SYR DCT DINES DCT ROC
Aircraft L1P/L-SBDFGRY/COL4

Departure

Time 2026-04-24 00:34
Airport Syracuse Hancock International Airport (KSYR)

Arrival

Time N/A
Airport Toronto Pearson International Airport (CYYZ)
Time Latitude Longitude Altitude Speed Heading
2026-04-24 00:16 43.10666 -76.11840 423 ft 0 kts 179°
2026-04-24 00:26 43.10661 -76.11848 423 ft 6 kts 293°
2026-04-24 00:26 43.10701 -76.11846 417 ft 0 kts 35°
2026-04-24 00:27 43.10702 -76.11845 422 ft 0 kts 37°
2026-04-24 00:28 43.10732 -76.11796 419 ft 7 kts 107°
2026-04-24 00:28 43.10727 -76.11699 422 ft 14 kts 85°
2026-04-24 00:28 43.10733 -76.11501 422 ft 23 kts 88°
2026-04-24 00:28 43.10740 -76.11350 420 ft 12 kts 90°
2026-04-24 00:29 43.10723 -76.11308 423 ft 0 kts 142°
2026-04-24 00:29 43.10720 -76.11306 423 ft 4 kts 148°
2026-04-24 00:29 43.10682 -76.11291 422 ft 9 kts 167°
2026-04-24 00:29 43.10632 -76.11168 422 ft 25 kts 85°
2026-04-24 00:30 43.10640 -76.10938 420 ft 24 kts 86°
2026-04-24 00:30 43.10648 -76.10715 420 ft 22 kts 85°
2026-04-24 00:30 43.10653 -76.10505 417 ft 23 kts 89°
2026-04-24 00:30 43.10663 -76.10284 414 ft 24 kts 89°
2026-04-24 00:31 43.10668 -76.10070 414 ft 21 kts 87°
2026-04-24 00:31 43.10677 -76.09876 412 ft 21 kts 79°
2026-04-24 00:31 43.10679 -76.09683 414 ft 16 kts 90°
2026-04-24 00:31 43.10686 -76.09532 419 ft 17 kts 86°
2026-04-24 00:32 43.10637 -76.09378 423 ft 19 kts 79°
2026-04-24 00:32 43.10730 -76.09262 429 ft 20 kts
2026-04-24 00:32 43.10837 -76.09263 423 ft 8 kts 356°
2026-04-24 00:32 43.10848 -76.09264 423 ft 0 kts 356°
2026-04-24 00:33 43.10856 -76.09265 423 ft 0 kts 355°
2026-04-24 00:33 43.10861 -76.09265 422 ft 4 kts 358°
2026-04-24 00:33 43.10929 -76.09309 421 ft 18 kts 285°
2026-04-24 00:34 43.10922 -76.09608 418 ft 53 kts 269°
2026-04-24 00:34 43.10890 -76.10324 442 ft 93 kts 268°
2026-04-24 00:34 43.10845 -76.11331 571 ft 115 kts 267°
2026-04-24 00:34 43.10801 -76.12350 1043 ft 100 kts 268°
2026-04-24 00:35 43.10759 -76.13300 1395 ft 100 kts 268°
2026-04-24 00:35 43.10705 -76.14225 1819 ft 94 kts 268°
2026-04-24 00:35 43.10623 -76.15111 2165 ft 96 kts 268°
2026-04-24 00:35 43.10520 -76.16010 2508 ft 95 kts 268°
2026-04-24 00:36 43.10404 -76.16902 2832 ft 95 kts 268°
2026-04-24 00:36 43.10380 -76.17773 3154 ft 87 kts 304°
2026-04-24 00:36 43.10754 -76.18419 3465 ft 87 kts 321°
2026-04-24 00:36 43.11300 -76.18744 3800 ft 86 kts 343°
2026-04-24 00:37 43.11878 -76.18942 4144 ft 85 kts 342°
2026-04-24 00:37 43.12420 -76.19222 4488 ft 84 kts 321°
2026-04-24 00:37 43.12783 -76.19856 4820 ft 87 kts 302°
2026-04-24 00:37 43.12951 -76.20668 5141 ft 88 kts 295°
2026-04-24 00:38 43.13114 -76.21463 5460 ft 88 kts 294°
2026-04-24 00:38 43.13275 -76.22260 5800 ft 86 kts 294°